period_start,C,m1,H,J0,J1,J2,J3,J4,J5,JA,JB,JC,JD,JJ,JK,JN,#
2016-03-31 00:03:11,0.21,4.05,0.00,9.90,14.39,18.91,15.37,50.82,1020.29,2082.00,2211.88,2271.36,2574.94,599.81,625.63,21.61,0000 0000 0000 0000 000000
2016-03-31 00:08:12,0.21,4.06,0.00,9.94,14.43,18.92,15.39,50.87,1020.28,2082.00,2209.29,2269.46,2572.83,599.81,625.58,21.66,0000 0000 0000 0000 000000
2016-03-31 00:13:13,0.19,4.07,0.00,9.97,14.46,18.99,15.47,51.02,1020.09,2082.00,2206.84,2267.66,2570.76,600.35,625.81,21.71,0000 0000 0000 0000 000000
2016-03-31 00:18:15,0.21,4.08,0.00,9.98,14.50,18.98,15.32,50.94,1020.08,2081.96,2204.29,2265.76,2568.67,599.48,625.01,21.76,0000 0000 0000 0000 000000
2016-03-31 00:23:16,0.16,4.09,0.00,10.02,14.54,19.05,15.37,50.97,1020.06,2081.67,2201.85,2263.87,2566.56,599.68,625.11,21.81,0000 0000 0000 0000 000000
2016-03-31 00:28:18,0.16,4.10,0.00,10.08,14.58,19.03,15.38,50.82,1020.06,2081.21,2199.38,2262.04,2564.48,599.57,624.87,21.86,0000 0000 0000 0000 000000
2016-03-31 00:33:19,0.21,4.11,0.00,10.08,14.61,19.10,15.31,50.97,1020.07,2081.07,2196.84,2260.15,2562.27,599.60,624.91,21.91,0000 0000 0000 0000 000000
2016-03-31 00:38:20,0.40,4.12,0.00,10.11,14.65,19.18,15.45,51.00,1020.05,2081.00,2192.25,2257.18,2559.08,600.13,625.41,21.96,0000 0000 0000 0000 000000
2016-03-31 00:43:22,0.46,4.15,0.00,10.15,14.68,19.18,15.37,51.09,1020.06,2081.00,2185.76,2253.20,2554.77,600.00,625.15,22.01,0000 0000 0000 0000 000000
2016-03-31 00:48:23,0.27,4.16,0.00,10.19,14.72,19.21,15.47,51.11,1020.13,2081.00,2182.12,2250.70,2551.92,599.88,624.96,22.06,0000 0000 0000 0000 000000
2016-03-31 00:53:25,0.30,4.18,0.00,10.23,14.75,19.29,15.36,51.00,1020.26,2080.98,2178.45,2248.17,2549.08,599.95,625.15,22.11,0000 0000 0000 0000 000000
2016-03-31 00:58:26,0.28,4.19,0.00,10.26,14.78,19.30,15.45,50.98,1020.32,2080.97,2174.89,2245.54,2546.14,600.29,625.38,22.16,0000 0000 0000 0000 000000
2016-03-31 01:03:27,0.19,4.20,0.00,10.29,14.81,19.31,15.39,50.94,1020.32,2080.75,2172.15,2243.53,2543.82,599.92,624.95,22.21,0000 0000 0000 0000 000000
2016-03-31 01:08:29,0.16,4.21,0.00,10.33,14.84,19.33,15.41,50.92,1020.26,2080.20,2169.44,2241.56,2541.61,599.93,624.85,22.26,0000 0000 0000 0000 000000
2016-03-31 01:13:30,0.19,4.22,0.00,10.35,14.88,19.34,15.41,50.98,1020.18,2080.03,2167.23,2239.80,2539.59,600.09,624.86,22.31,0000 0000 0000 0000 000000
2016-03-31 01:18:32,0.20,4.23,0.00,10.38,14.91,19.35,15.40,50.97,1020.14,2080.00,2164.75,2238.23,2537.50,600.05,624.70,22.36,0000 0000 0000 0000 000000
2016-03-31 01:23:33,0.22,4.24,0.00,10.43,14.95,19.38,15.38,51.04,1020.15,2080.00,2162.10,2236.32,2535.40,599.86,624.45,22.41,0000 0000 0000 0000 000000
2016-03-31 01:28:34,0.23,4.25,0.00,10.48,14.99,19.46,15.39,51.08,1020.22,2079.98,2159.32,2234.32,2533.19,599.94,624.43,22.46,0000 0000 0000 0000 000000
2016-03-31 01:33:35,0.22,4.27,0.00,10.50,15.03,19.48,15.38,50.95,1020.36,2079.96,2156.59,2232.41,2530.96,600.13,624.72,22.51,0000 0000 0000 0000 000000
2016-03-31 01:38:37,0.21,4.28,0.00,10.54,15.07,19.51,15.38,51.02,1020.44,2079.82,2153.91,2230.46,2528.82,599.86,624.42,22.56,0000 0000 0000 0000 000000
2016-03-31 01:43:38,0.17,4.29,0.00,10.58,15.11,19.56,15.44,51.02,1020.45,2079.35,2151.16,2228.54,2526.57,599.84,624.30,22.61,0000 0000 0000 0000 000000
2016-03-31 01:48:40,0.19,4.29,0.00,10.62,15.15,19.61,15.42,51.11,1020.34,2079.05,2148.69,2226.62,2524.38,600.20,624.53,22.66,0000 0000 0000 0000 000000
2016-03-31 01:53:41,0.23,4.31,0.00,10.67,15.19,19.70,15.35,51.03,1020.39,2079.01,2145.99,2224.71,2522.19,599.96,624.18,22.71,0000 0000 0000 0000 000000
2016-03-31 01:58:42,0.22,4.32,0.00,10.71,15.24,19.68,15.40,50.97,1020.31,2079.00,2143.39,2222.80,2520.03,599.89,623.99,22.76,0000 0000 0000 0000 000000
2016-03-31 02:03:44,0.22,4.33,0.00,10.75,15.29,19.69,15.40,51.11,1020.09,2078.99,2140.77,2220.85,2517.89,600.17,624.04,22.81,0000 0000 0000 0000 000000
2016-03-31 02:08:45,0.22,4.34,0.00,10.79,15.33,19.77,15.33,51.14,1020.11,2078.98,2138.22,2218.97,2515.69,599.80,623.63,22.86,0000 0000 0000 0000 000000
2016-03-31 02:13:46,0.22,4.35,0.00,10.84,15.38,19.82,15.46,51.15,1020.16,2078.84,2135.43,2216.97,2513.43,599.98,623.74,22.91,0000 0000 0000 0000 000000
2016-03-31 02:18:48,0.16,4.36,0.00,10.86,15.42,19.88,15.33,51.20,1020.26,2078.27,2132.60,2214.93,2511.15,599.81,623.47,22.96,0000 0000 0000 0000 000000
2016-03-31 02:23:49,0.21,4.37,0.00,10.94,15.47,19.84,15.35,51.04,1020.25,2078.04,2130.13,2212.93,2508.91,599.78,623.34,23.01,0000 0000 0000 0000 000000
2016-03-31 02:28:51,0.25,4.38,0.00,10.97,15.52,19.87,15.35,51.13,1020.17,2078.00,2127.20,2210.85,2506.53,600.24,623.67,23.06,0000 0000 0000 0000 000000
2016-03-31 02:33:52,0.26,4.40,0.00,11.00,15.57,19.93,15.39,51.16,1020.22,2077.99,2124.10,2208.60,2504.02,600.00,623.45,23.11,0000 0000 0000 0000 000000
2016-03-31 02:38:53,0.22,4.41,0.00,11.04,15.61,19.97,15.40,51.07,1020.26,2077.98,2121.46,2206.62,2501.78,600.28,623.57,23.16,0000 0000 0000 0000 000000
2016-03-31 02:43:55,0.18,4.42,0.00,11.10,15.66,20.00,15.28,51.22,1020.27,2077.72,2119.07,2204.73,2499.63,599.99,623.13,23.21,0000 0000 0000 0000 000000
2016-03-31 02:48:56,0.15,4.42,0.00,11.15,15.71,20.00,15.39,51.15,1020.19,2077.16,2116.58,2202.93,2497.52,600.13,623.15,23.26,0000 0000 0000 0000 000000
2016-03-31 02:53:57,0.22,4.44,0.00,11.19,15.76,20.08,15.28,51.10,1020.21,2077.01,2114.00,2200.96,2495.44,599.97,623.11,23.31,0000 0000 0000 0000 000000
2016-03-31 02:58:59,0.21,4.45,0.00,11.22,15.81,20.12,15.31,51.17,1020.23,2077.00,2111.46,2199.07,2493.38,600.09,623.04,23.36,0000 0000 0000 0000 000000
2016-03-31 03:04:00,0.21,4.46,0.00,11.29,15.85,20.14,15.37,51.16,1020.16,2077.00,2109.08,2197.19,2491.24,600.17,622.96,23.41,0000 0000 0000 0000 000000
2016-03-31 03:09:01,0.20,4.47,0.00,11.32,15.90,20.20,15.40,51.25,1020.16,2076.88,2106.68,2195.34,2489.13,600.12,622.73,23.46,0000 0000 0000 0000 000000
2016-03-31 03:14:03,0.17,4.48,0.00,11.37,15.94,20.23,15.43,51.13,1020.17,2076.49,2104.27,2193.52,2487.09,600.21,622.74,23.51,0000 0000 0000 0000 000000
2016-03-31 03:19:04,0.17,4.49,0.00,11.39,15.99,20.25,15.35,51.15,1020.28,2076.09,2101.84,2191.70,2484.99,600.16,622.72,23.56,0000 0000 0000 0000 000000
2016-03-31 03:24:06,0.22,4.50,0.00,11.45,16.03,20.31,15.23,51.07,1020.28,2076.01,2099.32,2189.76,2482.83,599.89,622.32,23.61,0000 0000 0000 0000 000000
2016-03-31 03:29:07,0.22,4.51,0.00,11.50,16.07,20.36,15.28,51.14,1020.11,2076.00,2096.77,2187.93,2480.71,599.57,621.83,23.66,0000 0000 0000 0000 000000
2016-03-31 03:34:09,0.22,4.52,0.00,11.53,16.11,20.38,15.31,51.04,1020.07,2075.99,2094.27,2186.05,2478.57,600.26,622.42,23.71,0000 0000 0000 0000 000000
2016-03-31 03:39:10,0.20,4.53,0.00,11.59,16.15,20.40,15.21,51.00,1020.08,2075.87,2091.67,2184.18,2476.40,599.81,621.83,23.76,0000 0000 0000 0000 000000
2016-03-31 03:44:11,0.19,4.54,0.00,11.65,16.19,20.42,15.39,51.18,1020.06,2075.58,2089.10,2182.29,2474.27,600.25,622.15,23.81,0000 0000 0000 0000 000000
2016-03-31 03:49:12,0.17,4.55,0.00,11.70,16.23,20.54,15.28,51.26,1020.08,2075.07,2086.51,2180.42,2472.16,599.92,621.73,23.86,0000 0000 0000 0000 000000
2016-03-31 03:54:14,0.23,4.56,0.00,11.78,16.28,20.58,15.33,51.15,1020.16,2075.02,2083.95,2178.49,2469.99,599.99,621.66,23.91,0000 0000 0000 0000 000000
2016-03-31 03:59:15,0.23,4.57,0.00,11.82,16.32,20.64,15.32,51.11,1020.18,2075.00,2081.37,2176.59,2467.82,600.07,621.66,23.96,0000 0000 0000 0000 000000
2016-03-31 04:04:16,0.22,4.58,0.00,11.83,16.37,20.68,15.28,51.11,1020.14,2075.00,2078.90,2174.81,2465.75,600.16,621.59,24.01,0000 0000 0000 0000 000000
2016-03-31 04:09:17,0.22,4.59,0.00,11.86,16.41,20.70,15.34,51.15,1020.10,2074.96,2076.33,2172.97,2463.58,600.14,621.63,24.06,0000 0000 0000 0000 000000
2016-03-31 04:14:19,0.18,4.60,0.00,11.90,16.45,20.74,15.34,51.03,1020.06,2074.64,2073.68,2171.09,2461.38,599.91,621.24,24.11,0000 0000 0000 0000 000000
2016-03-31 04:19:20,0.19,4.61,0.00,11.95,16.49,20.76,15.30,51.00,1020.06,2074.09,2070.89,2169.04,2459.10,599.89,621.06,24.16,0000 0000 0000 0000 000000
2016-03-31 04:24:22,0.24,4.62,0.00,11.99,16.53,20.76,15.33,51.03,1020.05,2074.01,2068.17,2167.10,2456.87,600.01,620.99,24.21,0000 0000 0000 0000 000000
2016-03-31 04:29:23,0.27,4.64,0.00,12.01,16.58,20.86,15.31,51.03,1020.07,2074.00,2065.15,2164.94,2454.40,600.04,621.21,24.26,0000 0000 0000 0000 000000
2016-03-31 04:34:24,0.26,4.65,0.00,12.00,16.62,20.91,15.23,50.97,1020.07,2073.99,2062.12,2162.75,2451.95,599.80,620.93,24.31,0000 0000 0000 0000 000000
2016-03-31 04:39:26,0.30,4.66,0.00,12.04,16.66,20.95,15.27,50.96,1020.05,2073.97,2058.78,2160.40,2449.29,599.92,620.90,24.36,0000 0000 0000 0000 000000
2016-03-31 04:44:27,0.30,4.68,0.00,12.08,16.70,20.98,15.36,51.08,1020.04,2073.80,2055.12,2157.84,2446.40,600.11,621.03,24.41,0000 0000 0000 0000 000000
2016-03-31 04:49:28,0.27,4.69,0.00,12.13,16.74,20.97,15.19,51.02,1020.04,2073.36,2051.40,2155.23,2443.44,599.80,620.71,24.46,0000 0000 0000 0000 000000
2016-03-31 04:54:30,0.29,4.71,0.00,12.15,16.78,21.07,15.22,50.97,1020.04,2073.05,2047.92,2152.72,2440.62,599.93,620.70,24.51,0000 0000 0000 0000 000000
2016-03-31 04:59:31,0.28,4.73,0.00,12.13,16.81,21.16,15.37,51.10,1020.04,2073.01,2044.85,2150.38,2437.98,600.29,621.13,24.56,0000 0000 0000 0000 000000
2016-03-31 05:04:32,0.31,4.74,0.00,12.15,16.86,21.15,15.35,51.02,1020.03,2073.00,2041.46,2147.96,2435.24,600.31,620.97,24.61,0000 0000 0000 0000 000000
2016-03-31 05:09:34,0.36,4.76,0.00,12.20,16.89,21.16,15.25,51.03,1020.03,2072.99,2037.47,2145.20,2432.19,599.73,620.38,24.66,0000 0000 0000 0000 000000
2016-03-31 05:14:35,0.39,4.78,0.00,12.25,16.93,21.23,15.25,50.96,1020.03,2072.96,2033.12,2142.16,2428.89,600.01,620.61,24.71,0000 0000 0000 0000 000000
2016-03-31 05:19:36,0.43,4.80,0.00,12.30,16.96,21.25,15.29,50.92,1020.03,2072.87,2028.28,2138.78,2425.10,599.73,620.10,24.77,0000 0000 0000 0000 000000
2016-03-31 05:24:38,0.42,4.82,0.00,12.31,16.99,21.30,15.37,51.17,1020.03,2072.34,2022.85,2134.97,2420.88,599.80,620.29,24.81,0000 0000 0000 0000 000000
2016-03-31 05:29:39,0.48,4.84,0.00,12.35,17.03,21.34,15.27,51.15,1020.03,2072.05,2017.24,2131.05,2416.52,600.09,620.45,24.86,0000 0000 0000 0000 000000
2016-03-31 05:34:41,0.52,4.87,0.00,12.37,17.06,21.35,15.33,51.08,1020.04,2072.00,2011.49,2127.08,2412.06,599.75,620.04,24.91,0000 0000 0000 0000 000000
2016-03-31 05:39:42,0.52,4.90,0.00,12.41,17.10,21.41,15.38,51.04,1020.05,2072.00,2005.71,2123.07,2407.57,600.34,620.48,24.96,0000 0000 0000 0000 000000
2016-03-31 05:44:43,0.40,4.92,0.00,12.40,17.13,21.38,15.26,51.06,1020.06,2071.98,2000.65,2119.58,2403.67,599.95,620.27,25.02,0000 0000 0000 0000 000000
2016-03-31 05:49:44,0.33,4.94,0.00,12.40,17.17,21.39,15.26,51.12,1020.05,2071.98,1997.38,2117.21,2401.06,600.04,620.23,25.07,0000 0000 0000 0000 000000
2016-03-31 05:54:45,0.23,4.95,0.00,12.44,17.20,21.42,15.31,51.14,1020.04,2071.90,1994.44,2115.20,2398.73,600.30,620.43,25.12,0000 0000 0000 0000 000000
2016-03-31 05:59:46,0.17,4.96,0.00,12.49,17.23,21.47,15.34,51.15,1020.04,2071.46,1991.77,2113.35,2396.60,600.21,620.23,25.17,0000 0000 0000 0000 000000
2016-03-31 06:04:48,0.28,4.97,0.00,12.51,17.25,21.48,15.29,51.11,1020.04,2071.16,1989.05,2111.38,2394.33,599.99,619.96,25.22,0000 0000 0000 0000 000000
2016-03-31 06:09:49,0.33,4.99,0.00,12.49,17.28,21.52,15.22,51.02,1020.04,2071.07,1985.17,2108.77,2391.29,599.71,619.73,25.27,0000 0000 0000 0000 000000
2016-03-31 06:14:50,0.34,5.00,0.00,12.55,17.30,21.54,15.37,51.02,1020.04,2071.01,1981.78,2106.16,2388.32,600.61,620.67,25.32,0000 0000 0000 0000 000000
2016-03-31 06:19:51,0.39,5.02,0.00,12.57,17.33,21.55,15.36,51.04,1020.04,2071.00,1977.52,2103.15,2384.94,600.34,620.08,25.37,0000 0000 0000 0000 000000
2016-03-31 06:24:53,0.23,5.04,0.00,12.61,17.35,21.55,15.24,51.03,1020.04,2070.99,1974.61,2101.14,2382.65,600.01,619.82,25.42,0000 0000 0000 0000 000000
2016-03-31 06:29:54,0.20,5.05,0.00,12.59,17.37,21.61,15.29,51.08,1020.04,2070.97,1972.55,2099.61,2380.90,599.99,619.89,25.47,0000 0000 0000 0000 000000
2016-03-31 06:34:55,0.15,5.06,0.00,12.62,17.39,21.67,15.35,51.13,1020.04,2070.95,1970.75,2098.34,2379.51,600.02,619.87,25.52,0000 0000 0000 0000 000000
2016-03-31 06:39:56,0.17,5.06,0.00,12.67,17.41,21.70,15.21,50.88,1020.04,2070.93,1968.95,2097.01,2377.99,599.86,619.62,25.57,0000 0000 0000 0000 000000
2016-03-31 06:44:57,0.18,5.07,0.00,12.69,17.42,21.73,15.27,50.95,1020.04,2070.72,1966.86,2095.50,2376.29,600.05,619.68,25.62,0000 0000 0000 0000 000000
2016-03-31 06:49:59,0.15,5.08,0.00,12.68,17.44,21.71,15.24,50.95,1020.04,2070.51,1964.80,2094.10,2374.67,599.90,619.61,25.67,0000 0000 0000 0000 000000
2016-03-31 06:55:00,0.17,5.09,0.00,12.69,17.44,21.79,15.32,50.92,1020.04,2070.27,1962.73,2092.70,2372.97,599.99,619.65,25.72,0000 0000 0000 0000 000000
2016-03-31 07:00:01,0.16,5.10,0.00,12.72,17.45,21.76,15.24,50.98,1020.04,2070.12,1960.71,2091.35,2371.46,599.76,619.39,25.77,0000 0000 0000 0000 000000
2016-03-31 07:05:02,0.23,5.11,0.00,12.75,17.47,21.76,15.28,50.91,1020.07,2070.05,1958.29,2089.71,2369.63,599.91,619.41,25.82,0000 0000 0000 0000 000000
2016-03-31 07:10:04,0.25,5.12,0.00,12.74,17.47,21.78,15.28,50.84,1020.06,2070.05,1955.46,2087.84,2367.58,600.00,619.46,25.87,0000 0000 0000 0000 000000
2016-03-31 07:15:05,0.22,5.13,0.00,12.75,17.47,21.83,15.27,50.84,1020.06,2070.01,1952.82,2086.17,2365.75,599.77,619.26,25.92,0000 0000 0000 0000 000000
2016-03-31 07:20:07,0.24,5.15,0.00,12.76,17.47,21.86,15.32,50.82,1020.05,2070.01,1950.19,2084.43,2363.80,600.48,620.01,25.97,0000 0000 0000 0000 000000
2016-03-31 07:25:08,0.27,5.16,0.00,12.79,17.48,21.88,15.25,50.88,1020.04,2070.01,1947.47,2082.50,2361.57,599.95,619.34,26.02,0000 0000 0000 0000 000000
2016-03-31 07:30:09,0.49,5.18,0.00,12.76,17.49,21.87,15.25,50.87,1020.09,2070.01,1943.26,2079.13,2357.80,599.94,619.44,26.07,0000 0000 0000 0000 000000
2016-03-31 07:35:11,0.72,5.21,0.00,12.77,17.49,21.89,15.30,50.73,1020.07,2070.01,1936.89,2073.64,2351.77,600.32,619.80,26.12,0000 0000 0000 0000 000000
2016-03-31 07:40:12,0.67,5.25,0.00,12.79,17.49,21.86,15.18,50.67,1020.04,2070.00,1930.55,2068.19,2345.75,599.66,619.12,26.17,0000 0000 0000 0000 000000
2016-03-31 07:45:14,0.53,5.28,0.00,12.80,17.49,21.85,15.23,50.66,1020.04,2070.00,1924.84,2063.93,2341.02,599.98,619.41,26.22,0000 0000 0000 0000 000000
2016-03-31 07:50:15,0.46,5.30,0.00,12.75,17.49,21.91,15.22,50.67,1020.05,2070.00,1919.69,2060.45,2337.14,599.98,619.47,26.27,0000 0000 0000 0000 000000
2016-03-31 07:55:16,0.37,5.32,0.00,12.79,17.47,21.92,15.26,50.61,1020.06,2070.00,1915.72,2057.64,2333.94,600.05,619.48,26.32,0000 0000 0000 0000 000000
2016-03-31 08:00:18,0.42,5.34,0.77,12.81,17.47,21.88,15.24,50.78,1020.05,2070.00,1911.49,2054.84,2330.78,599.76,619.07,26.37,0000 0000 0000 0000 000000
2016-03-31 08:05:19,0.40,5.36,1.00,12.78,17.48,21.86,15.21,50.65,1020.04,2070.00,1907.08,2051.90,2327.48,599.50,618.91,26.42,0000 0000 0000 0000 000000
2016-03-31 08:10:20,0.29,5.38,1.00,12.73,17.48,21.85,15.29,50.76,1020.04,2070.00,1903.96,2049.67,2325.03,599.80,619.32,26.47,0000 0000 0000 0000 000000
2016-03-31 08:15:22,0.28,5.40,1.00,12.74,17.47,21.90,15.34,50.87,1020.05,2070.00,1901.00,2047.61,2322.65,600.56,620.03,26.52,0000 0000 0000 0000 000000
2016-03-31 08:20:23,0.24,5.41,1.00,12.75,17.47,21.83,15.30,50.79,1020.06,2069.99,1898.37,2045.94,2320.48,600.49,620.00,26.57,0000 0000 0000 0000 000000
2016-03-31 08:25:24,0.27,5.42,1.00,12.71,17.47,21.82,15.24,50.65,1020.09,2069.99,1895.73,2044.02,2318.22,600.14,619.74,26.62,0000 0000 0000 0000 000000
2016-03-31 08:30:25,0.27,5.43,0.23,12.69,17.47,21.80,15.30,50.82,1020.13,2069.99,1892.93,2042.14,2316.05,600.02,619.70,26.67,0000 0000 0000 0000 000000
2016-03-31 08:35:27,0.34,5.45,0.00,12.71,17.47,21.79,15.22,50.63,1020.11,2069.99,1889.49,2039.83,2313.38,600.13,619.74,26.72,0000 0000 0000 0000 000000
2016-03-31 08:40:28,0.29,5.46,0.00,12.73,17.46,21.80,15.22,50.62,1020.10,2069.99,1886.41,2037.72,2311.11,599.92,619.36,26.77,0000 0000 0000 0000 000000
2016-03-31 08:45:29,0.20,5.48,0.00,12.70,17.45,21.83,15.21,50.74,1020.09,2069.99,1883.84,2035.97,2309.02,599.88,619.49,26.82,0000 0000 0000 0000 000000
2016-03-31 08:50:30,0.16,5.49,0.00,12.66,17.44,21.76,15.29,50.62,1020.15,2069.99,1882.37,2034.89,2307.75,600.02,619.84,26.87,0000 0000 0000 0000 000000
2016-03-31 08:55:32,0.15,5.50,0.00,12.68,17.44,21.75,15.28,50.72,1020.16,2069.99,1880.84,2033.84,2306.55,599.77,619.43,26.92,0000 0000 0000 0000 000000
2016-03-31 09:00:33,0.12,5.50,0.00,12.69,17.44,21.74,15.23,50.73,1020.28,2069.99,1879.56,2032.88,2305.42,600.04,619.79,26.97,0000 0000 0000 0000 000000
2016-03-31 09:05:34,0.11,5.51,0.00,12.68,17.43,21.71,15.26,50.67,1020.35,2069.99,1878.25,2031.99,2304.36,599.94,619.75,27.02,0000 0000 0000 0000 000000
2016-03-31 09:10:35,0.14,5.52,0.00,12.60,17.42,21.70,15.29,50.66,1020.46,2070.00,1876.84,2031.01,2303.23,600.05,620.04,27.07,0000 0000 0000 0000 000000
2016-03-31 09:15:37,0.21,5.52,0.00,12.61,17.40,21.66,15.30,50.67,1020.38,2070.00,1875.02,2029.74,2301.94,600.30,620.29,27.12,0000 0000 0000 0000 000000
2016-03-31 09:20:38,0.22,5.54,0.00,12.62,17.39,21.67,15.26,50.62,1020.30,2070.00,1872.59,2028.15,2300.06,599.52,619.49,27.17,0000 0000 0000 0000 000000
2016-03-31 09:25:39,0.22,5.55,0.00,12.59,17.39,21.71,15.26,50.69,1020.32,2070.01,1870.40,2026.62,2298.32,599.58,619.57,27.22,0000 0000 0000 0000 000000
2016-03-31 09:30:40,0.18,5.56,0.00,12.56,17.37,21.62,15.17,50.66,1020.42,2070.02,1868.45,2025.31,2296.76,599.56,619.64,27.27,0000 0000 0000 0000 000000
2016-03-31 09:35:42,0.16,5.57,0.00,12.52,17.36,21.64,15.26,50.73,1020.36,2070.04,1866.77,2024.13,2295.49,599.91,620.08,27.32,0000 0000 0000 0000 000000
2016-03-31 09:40:43,0.15,5.58,0.00,12.53,17.34,21.58,15.28,50.76,1020.29,2070.19,1865.46,2023.13,2294.28,599.83,619.95,27.37,0000 0000 0000 0000 000000
2016-03-31 09:45:44,0.14,5.58,0.00,12.53,17.34,21.64,15.25,50.67,1020.42,2070.30,1864.11,2022.20,2293.22,600.06,620.30,27.42,0000 0000 0000 0000 000000
2016-03-31 09:50:46,0.20,5.59,0.00,12.53,17.33,21.66,15.20,50.66,1020.32,2070.72,1862.70,2021.18,2292.01,599.85,619.97,27.47,0000 0000 0000 0000 000000
2016-03-31 09:55:47,0.15,5.60,0.00,12.49,17.32,21.67,15.28,50.64,1020.38,2070.72,1861.17,2020.09,2290.72,599.92,620.11,27.52,0000 0000 0000 0000 000000
2016-03-31 10:00:48,0.17,5.61,0.00,12.47,17.30,21.62,15.29,50.63,1020.37,2070.80,1859.60,2018.92,2289.46,599.96,620.22,27.57,0000 0000 0000 0000 000000
2016-03-31 10:05:49,0.18,5.62,0.00,12.47,17.29,21.56,15.25,50.67,1020.42,2070.90,1857.94,2017.78,2288.21,599.96,620.38,27.62,0000 0000 0000 0000 000000
2016-03-31 10:10:51,0.16,5.62,0.00,12.47,17.28,21.53,15.28,50.67,1020.32,2070.94,1856.49,2016.74,2286.91,599.94,620.21,27.67,0000 0000 0000 0000 000000
2016-03-31 10:15:52,0.12,5.63,0.00,12.44,17.27,21.47,15.29,50.67,1020.36,2070.97,1855.12,2015.83,2285.74,600.04,620.46,27.72,0000 0000 0000 0000 000000
2016-03-31 10:20:53,0.17,5.64,0.00,12.39,17.25,21.57,15.22,50.70,1020.36,2070.98,1853.78,2014.73,2284.62,599.92,620.41,27.77,0000 0000 0000 0000 000000
2016-03-31 10:25:54,0.11,5.65,0.00,12.34,17.23,21.55,15.28,50.61,1020.24,2070.98,1852.49,2013.85,2283.60,599.95,620.39,27.82,0000 0000 0000 0000 000000
2016-03-31 10:30:56,0.13,5.65,0.00,12.34,17.22,21.55,15.25,50.59,1020.23,2070.99,1851.16,2012.86,2282.49,599.75,620.24,27.87,0000 0000 0000 0000 000000
2016-03-31 10:35:57,0.14,5.66,0.00,12.37,17.20,21.48,15.31,50.63,1020.10,2070.99,1849.73,2011.96,2281.38,599.81,620.10,27.92,0000 0000 0000 0000 000000
2016-03-31 10:40:58,0.13,5.67,0.00,12.37,17.19,21.51,15.27,50.73,1020.05,2070.99,1848.50,2011.06,2280.37,599.91,620.25,27.97,0000 0000 0000 0000 000000
2016-03-31 10:46:00,0.13,5.67,0.00,12.31,17.17,21.50,15.32,50.60,1020.04,2071.00,1847.23,2010.16,2279.35,600.19,620.59,28.02,0000 0000 0000 0000 000000
2016-03-31 10:51:01,0.14,5.68,0.00,12.28,17.14,21.48,15.28,50.64,1020.04,2071.01,1845.87,2009.29,2278.33,599.88,620.39,28.07,0000 0000 0000 0000 000000
2016-03-31 10:56:02,0.12,5.69,0.00,12.25,17.13,21.41,15.29,50.59,1020.04,2071.01,1844.69,2008.50,2277.40,599.90,620.44,28.12,0000 0000 0000 0000 000000
2016-03-31 11:01:03,0.12,5.69,0.00,12.24,17.11,21.41,15.27,50.56,1020.04,2071.04,1843.55,2007.70,2276.39,600.20,620.83,28.17,0000 0000 0000 0000 000000
2016-03-31 11:06:05,0.13,5.70,0.00,12.20,17.08,21.36,15.28,50.67,1020.03,2071.07,1842.29,2006.73,2275.37,600.17,620.86,28.22,0000 0000 0000 0000 000000
2016-03-31 11:11:06,0.12,5.71,0.00,12.15,17.06,21.34,15.29,50.78,1020.03,2071.13,1841.02,2005.92,2274.27,599.96,620.74,28.27,0000 0000 0000 0000 000000
2016-03-31 11:16:07,0.21,5.72,0.00,12.13,17.03,21.36,15.33,50.66,1020.03,2071.64,1839.78,2005.06,2273.40,600.17,620.96,28.32,0000 0000 0000 0000 000000
2016-03-31 11:21:08,0.16,5.72,0.00,12.10,17.02,21.32,15.24,50.59,1020.01,2071.94,1838.44,2004.18,2272.40,600.01,620.84,28.37,0000 0000 0000 0000 000000
2016-03-31 11:26:10,0.12,5.73,0.00,12.09,16.99,21.33,15.19,50.55,1020.01,2071.98,1837.20,2003.39,2271.45,599.65,620.54,28.42,0000 0000 0000 0000 000000
2016-03-31 11:31:11,0.13,5.74,0.00,12.04,16.98,21.32,15.32,50.60,1020.03,2071.99,1835.91,2002.58,2270.40,599.90,621.03,28.47,0000 0000 0000 0000 000000
2016-03-31 11:36:12,0.12,5.74,0.00,12.00,16.95,21.28,15.23,50.61,1020.02,2071.99,1834.71,2001.76,2269.43,599.52,620.79,28.53,0000 0000 0000 0000 000000
2016-03-31 11:41:13,0.11,5.75,0.00,11.99,16.93,21.25,15.29,50.69,1020.02,2071.99,1833.54,2000.96,2268.46,599.77,620.86,28.58,0000 0000 0000 0000 000000
2016-03-31 11:46:14,0.12,5.76,0.00,11.97,16.91,21.22,15.33,50.61,1020.01,2072.02,1832.42,2000.09,2267.61,600.18,621.31,28.63,0000 0000 0000 0000 000000
2016-03-31 11:51:15,0.12,5.76,0.00,11.95,16.88,21.20,15.32,50.73,1020.00,2072.03,1831.27,1999.33,2266.64,599.92,621.14,28.68,0000 0000 0000 0000 000000
2016-03-31 11:56:17,0.14,5.77,0.00,11.90,16.86,21.16,15.32,50.71,1019.95,2072.05,1829.85,1998.35,2265.56,600.03,621.26,28.73,0000 0000 0000 0000 000000
2016-03-31 12:01:18,0.13,5.77,0.00,11.86,16.83,21.19,15.30,50.63,1019.81,2072.13,1828.70,1997.59,2264.62,599.86,621.11,28.78,0000 0000 0000 0000 000000
2016-03-31 12:06:19,0.15,5.78,0.00,11.84,16.81,21.13,15.30,50.52,1019.67,2072.50,1827.60,1996.86,2263.82,599.78,620.92,28.83,0000 0000 0000 0000 000000
2016-03-31 12:11:21,0.17,5.79,0.00,11.84,16.79,20.97,15.23,50.61,1019.67,2072.91,1826.33,1995.96,2262.71,599.72,620.97,28.88,0000 0000 0000 0000 000000
2016-03-31 12:16:22,0.13,5.80,0.00,11.83,16.77,20.96,15.35,50.63,1019.68,2072.94,1824.90,1995.05,2261.69,600.06,621.16,28.93,0000 0000 0000 0000 000000
2016-03-31 12:21:24,0.14,5.81,0.00,11.81,16.74,21.06,15.30,50.61,1019.63,2072.97,1823.61,1994.14,2260.67,599.82,621.18,28.98,0000 0000 0000 0000 000000
2016-03-31 12:26:25,0.18,5.81,0.00,11.78,16.73,20.95,15.26,50.84,1019.59,2072.99,1821.73,1993.05,2259.41,600.08,621.39,29.03,0000 0000 0000 0000 000000
2016-03-31 12:31:26,0.16,5.83,0.00,11.73,16.70,21.01,15.28,50.83,1019.56,2072.99,1819.82,1992.01,2258.16,599.87,621.23,29.08,0000 0000 0000 0000 000000
2016-03-31 12:36:28,0.13,5.83,0.00,11.70,16.68,20.98,15.28,50.84,1019.58,2072.99,1818.54,1991.08,2257.12,599.81,621.13,29.13,0000 0000 0000 0000 000000
2016-03-31 12:41:29,0.12,5.84,0.00,11.72,16.66,20.95,15.37,50.84,1019.57,2072.99,1817.35,1990.26,2256.22,600.38,621.78,29.18,0000 0000 0000 0000 000000
2016-03-31 12:46:30,0.11,5.84,0.00,11.71,16.64,20.87,15.34,50.75,1019.58,2073.00,1816.26,1989.48,2255.34,600.40,621.88,29.23,0000 0000 0000 0000 000000
2016-03-31 12:51:32,0.10,5.85,0.00,11.69,16.62,20.84,15.37,50.83,1019.58,2073.01,1815.04,1988.81,2254.35,600.19,621.57,29.28,0000 0000 0000 0000 000000
2016-03-31 12:56:33,0.12,5.86,0.00,11.67,16.59,20.85,15.42,51.02,1019.57,2073.05,1813.88,1988.01,2253.47,600.24,621.74,29.33,0000 0000 0000 0000 000000